Location: Kuppenheim
(48.8299°N, 8.2568°E)
Time: 19:21:01
(UTC+00:00)

BlueWalker 3 - Visible Passes

Search period start: 02 December 2023 00:00
Search period end: 12 December 2023 00:00
Orbit: 489 x 503 km, 53.2° (Epoch: 02 December)

Date Brightness Start Highest point End Pass type
(mag) Time Alt. Az. Time Alt. Az. Time Alt. Az.
02 Dec 3.7 04:02:34 30° E 04:02:34 30° E 04:04:40 10° ESE visible
02 Dec 3.0 05:37:08 20° W 05:39:02 31° SW 05:42:25 10° SSE visible
03 Dec 4.7 03:41:02 17° ESE 03:41:02 17° ESE 03:42:01 10° ESE visible
03 Dec 2.9 05:15:36 28° WSW 05:16:23 31° SW 05:19:47 10° SSE visible
04 Dec 3.0 04:54:06 31° SSW 04:54:06 31° SSW 04:57:07 10° SSE visible
05 Dec 3.7 04:32:38 22° S 04:32:38 22° S 04:34:25 10° SSE visible
06 Dec 4.6 04:11:12 13° SSE 04:11:12 13° SSE 04:11:41 10° SSE visible
